Weather History for Paso Robles, CA

Change the Weather History Date:

Monday, November 19, 2012

  Actual Average Record
Temperature  
Mean Temperature 51 °F 51 °F  
Max Temperature 67 °F 65 °F 82 °F (1989)
Min Temperature 34 °F 37 °F 22 °F (1961)
Degree Days  
Heating Degree Days 14 14  
Month to date heating degree days 202 208  
Since 1 July heating degree days 309 378  
Cooling Degree Days 0 0  
Month to date cooling degree days 3 0  
Year to date cooling degree days 1147 926  
Moisture  
Dew Point 39 °F    
Average Humidity 70    
Maximum Humidity 100    
Minimum Humidity 40    
Precipitation  
Precipitation 0.00 in 0.03 in 1.86 in (1963)
Month to date precipitation 0.14 0.63  
Year to date precipitation 6.15 10.37  
Since 1 July precipitation 0.28 1.58  
Sea Level Pressure  
Sea Level Pressure 30.23 in    
Wind  
Wind Speed 2 mph (SE)    
Max Wind Speed 9 mph    
Max Gust Speed -    
Visibility 8 miles    
Events Fog    
T = Trace of Precipitation, MM = Missing Value Source: NWS Daily Summary

Daily Weather History Graph

Daily Weather History Graph

Search for Another Location

Airport:

Trip Planner

Search our weather history database for the weather conditions in past years. The results will help you decide how hot, cold, wet, or windy it might be!

Date:

Astronomy

Nov. 19, 2012 Rise Set
Actual Time 6:42 AM PST 4:52 PM PST
Civil Twilight 6:15 AM PST 5:20 PM PST
Nautical Twilight 5:44 AM PST 5:51 PM PST
Astronomical Twilight 5:13 AM PST 6:21 PM PST
Moon 11:53 AM PST (11/19) 11:19 PM PST (11/19)
Length of Visible Light 11h 04m
Length of Day
10h 10m
Waxing Crescent, 42% of the Moon is Illuminated
Nov 19
Waxing Crescent
Nov 20
First Quarter
Nov 28
Full
Dec 6
Last Quarter
Dec 13
New

Hourly Weather History & Observations

Time (PST) Temp. Windchill Dew Point Humidity Pressure Visibility Wind Dir Wind Speed Gust Speed Precip Events Conditions
12:53 AM 39.9 °F - 39.0 °F 97% 30.19 in 10.0 mi Calm Calm - N/A   Clear
1:53 AM 37.9 °F - 37.9 °F 100% 30.20 in 10.0 mi Calm Calm - 0.01 in   Clear
2:53 AM 36.0 °F - 36.0 °F 100% 30.21 in 10.0 mi Calm Calm - N/A   Clear
3:53 AM 35.1 °F - 35.1 °F 100% 30.22 in 10.0 mi Calm Calm - N/A   Clear
4:33 AM 35.6 °F 32.8 °F 35.6 °F 100% 30.21 in 10.0 mi SE 3.5 mph - N/A   Partly Cloudy
4:53 AM 36.0 °F - 36.0 °F 100% 30.22 in 3.0 mi Calm Calm - N/A   Mostly Cloudy
5:22 AM 37.4 °F - 35.6 °F 93% 30.23 in 3.0 mi Calm Calm - N/A   Overcast
5:28 AM 35.6 °F - 35.6 °F 100% 30.23 in 1.2 mi Calm Calm - N/A   Overcast
5:33 AM 35.6 °F - 35.6 °F 100% 30.23 in 0.2 mi Calm Calm - N/A Fog Fog
5:45 AM 37.4 °F - 37.4 °F 100% 30.23 in 0.2 mi Calm Calm - N/A Fog Fog
5:53 AM 36.0 °F - 36.0 °F 100% 30.24 in 0.2 mi Calm Calm - N/A Fog Fog
6:03 AM 37.4 °F - 37.4 °F 100% 30.23 in 0.8 mi Calm Calm - N/A   Mist
6:23 AM 37.4 °F 33.8 °F 37.4 °F 100% 30.24 in 2.5 mi Variable 4.6 mph - N/A   Mostly Cloudy
6:53 AM 35.1 °F 31.0 °F 35.1 °F 100% 30.26 in 10.0 mi East 4.6 mph - N/A   Clear
7:53 AM 37.9 °F - - N/A% 30.27 in 10.0 mi Calm Calm - N/A   Clear
8:53 AM 42.1 °F - 39.9 °F 92% 30.29 in 10.0 mi Calm Calm - N/A   Clear
9:53 AM 48.9 °F - 44.1 °F 83% 30.29 in 10.0 mi Calm Calm - N/A   Clear
10:53 AM 54.0 °F - 44.1 °F 69% 30.27 in 10.0 mi Calm Calm - N/A   Clear
11:53 AM 59.0 °F - 44.1 °F 58% 30.24 in 10.0 mi Calm Calm - N/A   Clear
12:53 PM 63.0 °F - 39.9 °F 43% 30.22 in 10.0 mi Calm Calm - N/A   Clear
1:53 PM 64.0 °F - 39.9 °F 41% 30.21 in 10.0 mi Calm Calm - N/A   Clear
2:53 PM 66.9 °F - 41.0 °F 39% 30.20 in 10.0 mi Calm Calm - N/A   Clear
3:53 PM 64.9 °F - 42.1 °F 43% 30.20 in 10.0 mi SW 9.2 mph - N/A   Clear
4:53 PM 61.0 °F - 41.0 °F 48% 30.21 in 10.0 mi SW 6.9 mph - N/A   Clear
5:53 PM 55.9 °F - 42.1 °F 60% 30.22 in 10.0 mi South 5.8 mph - N/A   Clear
7:53 PM 48.9 °F - 42.1 °F 77% 30.22 in 10.0 mi North - - N/A   Clear
8:53 PM 46.9 °F - 42.1 °F 83% 30.22 in 10.0 mi ESE 4.6 mph - N/A   Clear
9:53 PM 46.0 °F 43.9 °F 41.0 °F 83% 30.22 in 10.0 mi East 4.6 mph - N/A   Clear
10:53 PM 44.1 °F - 39.9 °F 85% 30.22 in 10.0 mi Calm Calm - N/A   Clear
11:53 PM 42.1 °F 39.2 °F 39.0 °F 89% 30.21 in 10.0 mi East 4.6 mph - N/A   Clear